This is the latest recevied weather packets stored in our database for station/object WA7CUG. If no packets are shown the sender has not sent any weather packets the latest 10 day(s).
| Time | Temp. | Humidity | Pressure | Rain* | Wind** | Luminosity | Snow |
|---|---|---|---|---|---|---|---|
| 1778166069 | 15.56° C | 54% | 1016 hPa | 0 mm | - | 178 W/m² | - |
| 1778165764 | 15.56° C | 55% | 1015.7 hPa | 0 mm | - | 161 W/m² | - |
| 1778165462 | 15.56° C | 54% | 1016.1 hPa | 0 mm | - | 49 W/m² | - |
| 1778165158 | 15° C | 53% | 1015.9 hPa | 0 mm | - | 49 W/m² | - |
| 1778164856 | 15.56° C | 57% | 1015.9 hPa | 0 mm | - | 74 W/m² | - |
| 1778164552 | 15.56° C | 51% | 1015.9 hPa | 0 mm | - | 132 W/m² | - |
| 1778164250 | 15.56° C | 55% | 1016 hPa | 0 mm | - | 133 W/m² | - |
| 1778163950 | 15° C | 55% | 1015.8 hPa | 0 mm | - | 123 W/m² | - |
| 1778163647 | 15° C | 58% | 1015.7 hPa | 0 mm | - | 113 W/m² | - |
| 1778163343 | 15° C | 57% | 1015.6 hPa | 0 mm | - | 102 W/m² | - |
| 1778163040 | 15° C | 54% | 1015.7 hPa | 0 mm | - | 93 W/m² | - |
| 1778162737 | 14.44° C | 58% | 1015.5 hPa | 0 mm | - | 84 W/m² | - |
| 1778162435 | 13.89° C | 64% | 1015.4 hPa | 0 mm | - | 76 W/m² | - |
| 1778162131 | 13.89° C | 61% | 1015.6 hPa | 0 mm | - | 69 W/m² | - |
| 1778161829 | 13.33° C | 59% | 1015.2 hPa | 0 mm | - | 61 W/m² | - |
| 1778161525 | 13.33° C | 65% | 1015.2 hPa | 0 mm | - | 55 W/m² | - |
| 1778161221 | 13.33° C | 63% | 1014.8 hPa | 0 mm | - | 49 W/m² | - |
| 1778160917 | 13.33° C | 62% | 1014.9 hPa | 0 mm | - | 45 W/m² | - |
| 1778160616 | 13.89° C | 62% | 1014.8 hPa | 0 mm | - | 40 W/m² | - |
| 1778160312 | 12.78° C | 59% | 1014.9 hPa | 0 mm | - | 35 W/m² | - |
| 1778160008 | 13.33° C | 64% | 1014.8 hPa | 0 mm | - | 31 W/m² | - |
| 1778159705 | 13.89° C | 62% | 1014.8 hPa | 0 mm | - | 28 W/m² | - |
| 1778159402 | 13.89° C | 55% | 1014.6 hPa | 0 mm | - | 24 W/m² | - |
| 1778159099 | 12.78° C | 58% | 1014.7 hPa | 0 mm | - | 21 W/m² | - |
| 1778158797 | 12.22° C | 60% | 1014.7 hPa | 0 mm | - | 18 W/m² | - |
* Rain latest hour (hover to see other rain measurements)
** Current wind speed in m/s (hover to see current wind gust speed)